Buckhannon, WV

7:37 PM EDT on April 24, 2018 (GMT -0400)
Buckhannon

Weather History for KW22 - November, 2011

Change the Weather History Date:

Monday, November 14, 2011

  Actual Average (KCKB) Record (KCKB)
Temperature  
Mean Temperature 66 °F -  
Max Temperature 71 °F 51 °F 77 °F (1955)
Min Temperature 60 °F 30 °F 12 °F (1986)
Growing Degree Days 16 (Base 50)    
Moisture  
Dew Point 49 °F    
Average Humidity 54    
Maximum Humidity 60    
Minimum Humidity 45    
Precipitation  
Precipitation 0.00 in - - ()
Sea Level Pressure  
Sea Level Pressure 29.88 in    
Wind  
Wind Speed 15 mph (SSW)    
Max Wind Speed 24 mph    
Max Gust Speed 36 mph    
Visibility 10 miles    
Events      
Averages and records for this station are not official NWS values.
T = Trace of Precipitation, MM = Missing Value Source: NWS Daily Summary

Daily Weather History Graph

Daily Weather History Graph

Search for Another Location

Airport or City:

Astronomy

Nov. 14, 2011 Rise Set
Actual Time 7:02 AM EST 5:07 PM EST
Civil Twilight 6:34 AM EST 5:36 PM EST
Nautical Twilight 6:01 AM EST 6:08 PM EST
Astronomical Twilight 5:30 AM EST 6:40 PM EST
Moon 8:13 PM EST (11/14) 10:19 AM EST (11/14)
Length of Visible Light 11h 02m
Length of Day
10h 05m
Waning Gibbous, 87% of the Moon is Illuminated
Nov 14
Waning Gibbous
Nov 18
Last Quarter
Nov 25
New
Dec 2
First Quarter
Dec 10
Full

Hourly Weather History & Observations

Time (EST) Temp. Dew Point Humidity Pressure Visibility Wind Dir Wind Speed Gust Speed Precip Events Conditions
12:35 AM 60.8 °F 39.2 °F 45% 29.94 in 10.0 mi SSW 12.7 mph - N/A   Partly Cloudy
12:55 AM 60.8 °F 39.2 °F 45% 29.94 in 10.0 mi South 13.8 mph 18.4 mph N/A   Partly Cloudy
1:35 AM 60.8 °F 41.0 °F 48% 29.93 in 10.0 mi SSW 15.0 mph 19.6 mph N/A   Clear
1:55 AM 60.8 °F 41.0 °F 48% 29.93 in 10.0 mi SSW 13.8 mph 20.7 mph N/A   Clear
2:15 AM 60.8 °F 41.0 °F 48% 29.93 in 10.0 mi SSW 15.0 mph 20.7 mph N/A   Clear
2:35 AM 60.8 °F 41.0 °F 48% 29.93 in 10.0 mi SSW 13.8 mph 19.6 mph N/A   Scattered Clouds
2:55 AM 60.8 °F 42.8 °F 52% 29.93 in 10.0 mi SSW 12.7 mph - N/A   Partly Cloudy
3:15 AM 60.8 °F 42.8 °F 52% 29.93 in 10.0 mi SSW 15.0 mph 19.6 mph N/A   Clear
3:55 AM 60.8 °F 42.8 °F 52% 29.93 in 10.0 mi SSW 11.5 mph - N/A   Clear
4:35 AM 60.8 °F 44.6 °F 55% 29.92 in 10.0 mi SSW 12.7 mph - N/A   Clear
4:55 AM 60.8 °F 44.6 °F 55% 29.92 in 10.0 mi SSW 11.5 mph - N/A   Partly Cloudy
5:15 AM 60.8 °F 44.6 °F 55% 29.93 in 10.0 mi SSW 9.2 mph - N/A   Scattered Clouds
5:35 AM 60.8 °F 46.4 °F 59% 29.92 in 10.0 mi SSW 10.4 mph - N/A   Mostly Cloudy
5:55 AM 60.8 °F 46.4 °F 59% 29.92 in 10.0 mi SSW 16.1 mph 20.7 mph N/A   Mostly Cloudy
6:15 AM 60.8 °F 46.4 °F 59% 29.92 in 10.0 mi SSW 13.8 mph 18.4 mph N/A   Mostly Cloudy
6:35 AM 62.6 °F 46.4 °F 55% 29.92 in 10.0 mi SSW 11.5 mph 20.7 mph N/A   Mostly Cloudy
7:15 AM 62.6 °F 46.4 °F 55% 29.92 in 10.0 mi South 12.7 mph 20.7 mph N/A   Overcast
7:35 AM 62.6 °F 48.2 °F 59% 29.93 in 10.0 mi SSW 13.8 mph 20.7 mph N/A   Overcast
8:15 AM 62.6 °F 48.2 °F 59% 29.93 in 10.0 mi SSW 12.7 mph 19.6 mph N/A   Overcast
8:35 AM 64.4 °F 48.2 °F 56% 29.93 in 10.0 mi SSW 18.4 mph 25.3 mph N/A   Overcast
8:55 AM 64.4 °F 48.2 °F 56% 29.93 in 10.0 mi SSW 12.7 mph 24.2 mph N/A   Overcast
9:15 AM 64.4 °F 50.0 °F 59% 29.93 in 10.0 mi SSW 13.8 mph 24.2 mph N/A   Overcast
9:35 AM 64.4 °F 50.0 °F 59% 29.93 in 10.0 mi SSW 17.3 mph 26.5 mph N/A   Mostly Cloudy
9:55 AM 66.2 °F 51.8 °F 60% 29.93 in 10.0 mi SSW 16.1 mph 28.8 mph N/A   Scattered Clouds
10:15 AM 66.2 °F 51.8 °F 60% 29.93 in 10.0 mi SSW 18.4 mph 34.5 mph N/A   Mostly Cloudy
10:35 AM 68.0 °F 51.8 °F 56% 29.92 in 10.0 mi SW 15.0 mph 25.3 mph N/A   Scattered Clouds
10:55 AM 69.8 °F 51.8 °F 53% 29.92 in 10.0 mi SW 18.4 mph 26.5 mph N/A   Scattered Clouds
11:15 AM 69.8 °F 51.8 °F 53% 29.91 in 10.0 mi SW 16.1 mph 33.4 mph N/A   Partly Cloudy
11:35 AM 69.8 °F 51.8 °F 53% 29.90 in 10.0 mi SW 20.7 mph 31.1 mph N/A   Scattered Clouds
11:55 AM 69.8 °F 51.8 °F 53% 29.90 in 10.0 mi SW 20.7 mph 27.6 mph N/A   Mostly Cloudy
12:15 PM 69.8 °F 51.8 °F 53% 29.89 in 10.0 mi SW 17.3 mph 28.8 mph N/A   Scattered Clouds
12:35 PM 69.8 °F 51.8 °F 53% 29.87 in 10.0 mi SW 18.4 mph 31.1 mph N/A   Partly Cloudy
12:55 PM 71.6 °F 51.8 °F 50% 29.86 in 10.0 mi SSW 18.4 mph 28.8 mph N/A   Mostly Cloudy
1:15 PM 69.8 °F 51.8 °F 53% 29.86 in 10.0 mi SSW 16.1 mph 35.7 mph N/A   Scattered Clouds
1:35 PM 71.6 °F 51.8 °F 50% 29.86 in 10.0 mi SW 18.4 mph 26.5 mph N/A   Mostly Cloudy
1:55 PM 71.6 °F 51.8 °F 50% 29.85 in 10.0 mi SSW 19.6 mph 26.5 mph N/A   Scattered Clouds
2:15 PM 71.6 °F 51.8 °F 50% 29.85 in 10.0 mi SW 17.3 mph 28.8 mph N/A   Partly Cloudy
2:35 PM 71.6 °F 51.8 °F 50% 29.85 in 10.0 mi SSW 16.1 mph 26.5 mph N/A   Partly Cloudy
2:55 PM 71.6 °F 51.8 °F 50% 29.84 in 10.0 mi SSW 19.6 mph 26.5 mph N/A   Clear
3:15 PM 71.6 °F 51.8 °F 50% 29.83 in 10.0 mi SSW 16.1 mph 25.3 mph N/A   Partly Cloudy
3:35 PM 71.6 °F 51.8 °F 50% 29.83 in 10.0 mi SSW 24.2 mph 29.9 mph N/A   Partly Cloudy
3:55 PM 71.6 °F 51.8 °F 50% 29.83 in 10.0 mi SSW 20.7 mph 32.2 mph N/A   Clear
4:15 PM 71.6 °F 51.8 °F 50% 29.82 in 10.0 mi SSW 16.1 mph 31.1 mph N/A   Clear
4:35 PM 71.6 °F 51.8 °F 50% 29.82 in 10.0 mi SW 17.3 mph 27.6 mph N/A   Clear
4:55 PM 69.8 °F 51.8 °F 53% 29.82 in 10.0 mi SW 17.3 mph 20.7 mph N/A   Clear
5:15 PM 69.8 °F 51.8 °F 53% 29.82 in 10.0 mi SSW 16.1 mph 20.7 mph N/A   Clear
5:35 PM 69.8 °F 51.8 °F 53% 29.83 in 10.0 mi SSW 18.4 mph 25.3 mph N/A   Clear
5:55 PM 69.8 °F 51.8 °F 53% 29.83 in 10.0 mi SW 17.3 mph 27.6 mph N/A   Clear
6:15 PM 69.8 °F 51.8 °F 53% 29.82 in 10.0 mi SW 16.1 mph 26.5 mph N/A   Clear
6:35 PM 69.8 °F 51.8 °F 53% 29.83 in 10.0 mi SSW 12.7 mph 18.4 mph N/A   Scattered Clouds
6:55 PM 69.8 °F 51.8 °F 53% 29.83 in 10.0 mi SSW 13.8 mph 19.6 mph N/A   Mostly Cloudy
7:15 PM 69.8 °F 51.8 °F 53% 29.82 in 10.0 mi SSW 18.4 mph 25.3 mph N/A   Mostly Cloudy
7:35 PM 69.8 °F 51.8 °F 53% 29.82 in 10.0 mi SSW 13.8 mph 24.2 mph N/A   Scattered Clouds
7:55 PM 68.0 °F 51.8 °F 56% 29.81 in 10.0 mi SSW 12.7 mph - N/A   Partly Cloudy
8:15 PM 69.8 °F 51.8 °F 53% 29.83 in 10.0 mi SW 13.8 mph 20.7 mph N/A   Mostly Cloudy
8:35 PM 68.0 °F 51.8 °F 56% 29.83 in 10.0 mi SSW 15.0 mph 20.7 mph N/A   Mostly Cloudy
8:55 PM 68.0 °F 51.8 °F 56% 29.83 in 10.0 mi SSW 13.8 mph 23.0 mph N/A   Mostly Cloudy
9:15 PM 68.0 °F 51.8 °F 56% 29.83 in 10.0 mi SSW 13.8 mph 26.5 mph N/A   Mostly Cloudy
9:55 PM 66.2 °F 51.8 °F 60% 29.84 in 10.0 mi SSW 16.1 mph 24.2 mph N/A   Scattered Clouds
10:15 PM 66.2 °F 51.8 °F 60% 29.84 in 10.0 mi SW 16.1 mph 21.9 mph N/A   Clear
10:35 PM 66.2 °F 51.8 °F 60% 29.84 in 10.0 mi SSW 18.4 mph 23.0 mph N/A   Clear
10:55 PM 66.2 °F 51.8 °F 60% 29.84 in 10.0 mi SSW 18.4 mph 26.5 mph N/A   Mostly Cloudy
11:15 PM 66.2 °F 51.8 °F 60% 29.84 in 10.0 mi SSW 15.0 mph 27.6 mph N/A   Mostly Cloudy
11:35 PM 68.0 °F 51.8 °F 56% 29.83 in 10.0 mi SW 16.1 mph 24.2 mph N/A   Scattered Clouds
11:55 PM 68.0 °F 51.8 °F 56% 29.83 in 10.0 mi SW 18.4 mph 24.2 mph N/A   Scattered Clouds